QPF
0.00 0.00 0.00 0.00 0.00 0.00 0.00 0.00 0.00 0.00 0.00 0.00 0.00 0.00 0.00 0.00 0.00 0.00 0.00 0.00 0.00 0.00 0.00 0.00 0.00 0.00 0.00 0.00 0.00 0.00 0.00 0.00 0.00 0.00 0.00 0.00 0.00 0.00 0.00 0.00 0.00 0.00 0.00 0.00
0.00 0.00 0.00 0.00 0.00 0.00 0.00 0.00 0.00 0.00 0.00 0.00 0.00 0.00 0.00 0.00 0.00 0.00 0.00 0.00 0.00 0.00 0.00 0.00 0.00 0.00 0.00 0.00 0.00 0.00 0.00 0.00 0.00 0.00 0.00 0.00 0.00 0.00 0.00 0.00 0.00 0.00 0.00 0.00
0.00 0.00 0.00 0.00 0.00 0.00 0.00 0.00 0.00 0.00 0.00 0.00 0.00 0.00 0.00 0.00 0.00 0.00 0.00 0.00 0.00 0.00 0.00 0.00 0.00 0.00 0.00 0.00 0.00 0.00 0.00 0.00 0.00 0.00 0.00 0.00 0.00 0.00 0.00 0.00 0.00 0.00 0.00 0.00
0.00 0.00 0.00 0.00 0.00 0.00 0.00 0.00 0.00 0.00 0.00 0.00 0.00 0.00 0.00 0.00 0.00 0.00 0.00 0.00 0.00 0.00 0.00 0.00 0.00 0.00 0.00 0.00 0.00 0.00 0.00 0.00 0.00 0.00 0.00 0.00 0.00 0.00 0.00 0.00 0.00 0.00 0.00 0.00
0.00 0.00 0.00 0.00 0.00 0.00 0.00 0.00 0.00 0.00 0.00 0.00 0.00 0.00 0.00 0.00 0.00 0.00 0.00 0.00 0.00 0.00 0.00 0.00 0.00 0.00 0.00 0.00 0.00 0.00 0.00 0.00 0.00 0.00 0.00 0.00 0.00 0.00 0.00 0.00 0.00 0.00 0.00 0.00
0.00 0.00 0.00 0.00 0.00 0.00 0.00 0.00 0.00 0.00 0.00 0.00 0.00 0.00 0.00 0.00 0.00 0.00 0.00 0.00 0.00 0.00 0.00 0.00 0.00 0.00 0.00 0.00 0.00 0.00 0.00 0.00 0.00 0.00 0.00 0.00 0.00 0.00 0.00 0.00 0.00 0.00 0.00 0.00
0.00 0.00 0.00 0.00 0.00 0.00 0.00 0.00 0.00 0.00 0.00 0.00 0.00 0.00 0.00 0.00 0.00 0.00 0.00 0.00 0.00 0.00 0.00 0.00 0.00 0.00 0.00 0.00 0.00 0.00 0.00 0.00 0.00 0.00 0.00 0.00 0.00 0.00 0.00 0.00 0.00 0.00 0.00 0.00
0.00 0.00 0.00 0.00 0.00 0.00 0.00 0.00 0.00 0.00 0.00 0.00 0.00 0.00 0.00 0.00 0.00 0.00 0.00 0.00 0.00 0.00 0.00 0.00 0.00 0.00 0.00 0.00 0.00 0.00 0.00 0.00 0.00 0.00 0.00 0.00 0.00 0.00 0.00 0.00 0.00 0.00 0.00 0.00
0.00 0.00 0.00 0.00 0.00 0.00 0.00 0.00 0.00 0.00 0.00 0.00 0.00 0.00 0.00 0.00 0.00 0.00 0.00 0.00 0.00 0.00 0.00 0.00 0.00 0.00 0.00 0.00 0.00 0.00 0.00 0.00 0.00 0.00 0.00 0.00 0.00 0.00 0.00 0.00 0.00 0.00 0.00 0.00
0.00 0.00 0.00 0.00 0.00 0.00 0.00 0.00 0.00 0.00 0.00 0.00 0.00 0.00 0.00 0.00 0.00 0.00 0.00 0.00 0.00 0.00 0.00 0.00 0.00 0.00 0.00 0.00 0.00 0.00 0.00 0.00 0.00 0.00 0.00 0.00 0.00 0.00 0.00 0.00 0.00 0.00 0.00 0.00
0.00 0.00 0.00 0.00 0.00 0.00 0.00 0.00 0.00 0.00 0.00 0.00 0.00 0.00 0.00 0.00 0.00 0.00 0.00 0.00 0.00 0.00 0.00 0.00 0.00 0.00 0.00 0.00 0.00 0.00 0.00 0.00 0.00 0.00 0.00 0.00 0.00 0.00 0.00 0.00 0.00 0.00 0.00 0.00
0.00 0.00 0.00 0.00 0.00 0.00 0.00 0.00 0.00 0.00 0.00 0.00 0.00 0.00 0.00 0.00 0.00 0.00 0.00 0.00 0.00 0.00 0.00 0.00 0.00 0.00 0.00 0.00 0.00 0.00 0.00 0.00 0.00 0.00 0.00 0.00 0.00 0.00 0.00 0.00 0.00 0.00 0.00 0.00
0.00 0.00 0.00 0.00 0.00 0.00 0.00 0.00 0.00 0.00 0.00 0.00 0.00 0.00 0.00 0.00 0.00 0.00 0.00 0.00 0.00 0.00 0.00 0.00 0.00 0.00 0.00 0.00 0.00 0.00 0.00 0.00 0.00 0.00 0.00 0.00 0.00 0.00 0.00 0.00 0.00 0.00 0.00 0.00
0.00 0.00 0.00 0.00 0.00 0.00 0.00 0.00 0.00 0.00 0.00 0.00 0.00 0.00 0.00 0.00 0.00 0.00 0.00 0.00 0.00 0.00 0.00 0.00 0.00 0.00 0.00 0.00 0.00 0.00 0.00 0.00 0.00 0.00 0.00 0.00 0.00 0.00 0.00 0.00 0.00 0.00 0.00 0.00
0.00 0.00 0.00 0.00 0.00 0.00 0.00 0.00 0.00 0.00 0.00 0.00 0.00 0.00 0.00 0.00 0.00 0.00 0.00 0.00 0.00 0.00 0.00 0.00 0.00 0.00 0.00 0.00 0.00 0.00 0.00 0.00 0.00 0.00 0.00 0.00 0.00 0.00 0.00 0.00 0.00 0.00 0.00 0.00
0.00 0.00 0.00 0.00 0.00 0.00 0.00 0.00 0.00 0.00 0.00 0.00 0.00 0.00 0.00 0.00 0.00 0.00 0.00 0.00 0.00 0.00 0.00 0.00 0.00 0.00 0.00 0.00 0.00 0.00 0.00 0.00 0.00 0.00 0.00 0.00 0.00 0.00 0.00 0.00 0.00 0.00 0.00 0.00
0.00 0.00 0.00 0.00 0.00 0.00 0.00 0.00 0.00 0.00 0.00 0.00 0.00 0.00 0.00 0.00 0.00 0.00 0.00 0.00 0.00 0.00 0.00 0.00 0.00 0.00 0.00 0.00 0.00 0.00 0.00 0.00 0.00 0.00 0.00 0.00 0.00 0.00 0.00 0.00 0.00 0.00 0.00 0.00
0.00 0.00 0.00 0.00 0.00 0.00 0.00 0.00 0.00 0.00 0.00 0.00 0.00 0.00 0.00 0.00 0.00 0.00 0.00 0.00 0.00 0.00 0.00 0.00 0.00 0.00 0.00 0.00 0.00 0.00 0.00 0.00 0.00 0.00 0.00 0.00 0.00 0.00 0.00 0.00 0.00 0.00 0.00 0.00
0.00 0.00 0.00 0.00 0.00 0.00 0.00 0.00 0.00 0.00 0.00 0.00 0.00 0.00 0.00 0.00 0.00 0.00 0.00 0.00 0.00 0.00 0.00 0.00 0.00 0.00 0.00 0.00 0.00 0.00 0.00 0.00 0.00 0.00 0.00 0.00 0.00 0.00 0.00 0.00 0.00 0.00 0.00 0.00
0.00 0.00 0.00 0.00 0.00 0.00 0.00 0.00 0.00 0.00 0.00 0.00 0.00 0.00 0.00 0.00 0.00 0.00 0.00 0.00 0.00 0.00 0.00 0.00 0.00 0.00 0.00 0.00 0.00 0.00 0.00 0.00 0.00 0.00 0.00 0.00 0.00 0.00 0.00 0.00 0.00 0.00 0.00 0.00
0.00 0.00 0.00 0.00 0.00 0.00 0.00 0.00 0.00 0.00 0.00 0.00 0.00 0.00 0.00 0.00 0.00 0.00 0.00 0.00 0.00 0.00 0.00 0.00 0.00 0.00 0.00 0.00 0.00 0.00 0.00 0.00 0.00 0.00 0.00 0.00 0.00 0.00 0.00 0.00 0.00 0.00 0.00 0.00
0.00 0.00 0.00 0.00 0.00 0.00 0.00 0.00 0.00 0.00 0.00 0.00 0.00 0.00 0.00 0.00 0.00 0.00 0.00 0.00 0.00 0.00 0.00 0.00 0.00 0.00 0.00 0.00 0.00 0.00 0.00 0.00 0.00 0.00 0.00 0.00 0.00 0.00 0.00 0.00 0.00 0.00 0.00 0.00
0.00 0.00 0.00 0.00 0.00 0.00 0.00 0.00 0.00 0.00 0.00 0.00 0.00 0.00 0.00 0.00 0.00 0.00 0.00 0.00 0.00 0.00 0.00 0.00 0.00 0.00 0.00 0.00 0.00 0.00 0.00 0.00 0.00 0.00 0.00 0.00 0.00 0.00 0.00 0.00 0.00 0.00 0.00 0.00
0.00 0.00 0.00 0.00 0.00 0.00 0.00 0.00 0.00 0.00 0.00 0.00 0.00 0.00 0.00 0.00 0.00 0.00 0.00 0.00 0.00 0.00 0.00 0.00 0.00 0.00 0.00 0.00 0.00 0.00 0.00 0.00 0.00 0.00 0.00 0.00 0.00 0.00 0.00 0.00 0.00 0.00 0.00 0.00
0.00 0.00 0.00 0.00 0.00 0.00 0.00 0.00 0.00 0.00 0.00 0.00 0.00 0.00 0.00 0.00 0.00 0.00 0.00 0.00 0.00 0.00 0.00 0.00 0.00 0.00 0.00 0.00 0.00 0.00 0.00 0.00 0.00 0.00 0.00 0.00 0.00 0.00 0.00 0.00 0.00 0.00 0.00 0.00
0.00 0.00 0.00 0.00 0.00 0.00 0.00 0.00 0.00 0.00 0.00 0.00 0.00 0.00 0.00 0.00 0.00 0.00 0.00 0.00 0.00 0.00 0.00 0.00 0.00 0.00 0.00 0.00 0.00 0.00 0.00 0.00 0.00 0.00 0.00 0.00 0.00 0.00 0.00 0.00 0.00 0.00 0.00 0.00
MSLP
1003.13 1002.68 1000.78 1000.63 1000.94 1000.58 999.59 999.18 998.84 998.72 998.81 999.26 999.08 999.13 999.33 999.96 1001.09 1001.77 1002.97 1004.36 1005.03 1005.76 1006.92 1007.98 1009.02 1009.82 1010.66 1011.44 1012.40 1013.30 1013.95 1014.48 1015.11 1015.44 1015.51 1015.67 1015.75 1016.12 1016.30 1016.37 1016.71 1017.04 1017.27 1017.42
1002.00 1000.17 1000.57 1000.91 1000.76 1000.58 999.99 999.49 998.78 998.56 998.82 999.37 998.77 998.59 998.80 998.95 999.89 1000.74 1001.59 1002.95 1003.86 1004.92 1005.98 1007.06 1008.04 1008.90 1009.73 1010.64 1011.57 1012.57 1013.38 1014.06 1014.66 1014.79 1014.99 1015.10 1015.39 1015.51 1015.67 1015.78 1016.07 1016.53 1016.72 1017.03
999.08 999.08 1000.19 1000.30 1000.33 1000.36 1000.05 999.40 999.04 998.73 998.71 999.04 998.75 998.19 998.17 998.51 999.15 999.77 1000.37 1001.56 1002.85 1003.68 1004.72 1005.86 1006.95 1007.78 1008.71 1009.68 1010.69 1011.63 1012.66 1013.40 1014.10 1014.38 1014.77 1015.16 1015.28 1015.46 1015.30 1015.32 1015.65 1016.06 1016.39 1016.57
998.89 998.74 999.09 999.36 999.42 999.99 999.18 999.69 999.62 999.24 999.30 998.01 998.19 996.89 996.57 997.05 997.73 998.80 999.47 1000.17 1001.19 1002.21 1003.56 1004.58 1005.64 1006.81 1007.62 1008.56 1009.83 1010.80 1011.91 1012.78 1013.46 1014.10 1014.01 1014.28 1014.34 1014.27 1014.43 1014.81 1014.99 1015.22 1015.89 1016.12
997.35 997.77 998.08 998.27 998.56 999.34 998.89 999.20 999.58 999.61 999.09 998.70 997.50 997.10 995.77 995.79 996.51 997.23 998.14 998.86 999.92 1000.79 1001.93 1003.09 1004.20 1005.36 1006.40 1007.68 1008.66 1009.76 1010.96 1011.91 1012.46 1013.16 1013.39 1013.69 1013.95 1013.82 1013.94 1014.27 1014.52 1015.10 1015.26 1015.80
997.08 997.35 997.42 997.28 998.39 998.82 999.37 999.41 999.54 999.66 999.02 997.23 996.72 996.28 994.66 994.64 995.55 996.10 996.83 997.66 998.75 999.67 1000.70 1001.86 1002.99 1004.46 1005.63 1006.82 1007.89 1008.87 1009.94 1010.82 1011.69 1012.22 1012.84 1012.91 1013.05 1013.35 1013.35 1013.73 1014.01 1014.41 1014.78 1015.05
996.66 996.16 996.86 997.10 997.51 998.15 998.75 998.61 998.03 997.80 996.76 995.02 995.93 995.28 994.07 994.01 994.35 995.05 995.40 996.27 997.43 998.56 999.58 1000.63 1001.95 1003.03 1004.29 1005.42 1006.57 1007.62 1008.71 1009.76 1010.70 1011.41 1011.87 1012.29 1012.61 1013.01 1013.12 1013.28 1013.62 1013.55 1013.81 1014.10
995.05 994.93 995.06 995.27 995.81 996.25 997.14 996.93 995.26 994.62 994.13 994.65 995.00 993.01 992.68 993.89 994.42 994.42 994.92 994.81 996.24 997.51 998.64 999.55 1000.61 1001.87 1002.99 1004.13 1005.33 1006.54 1007.60 1008.84 1009.70 1010.38 1010.85 1011.42 1011.90 1012.26 1012.64 1012.93 1012.85 1013.07 1013.07 1013.33
993.40 993.02 993.63 994.45 995.27 995.44 995.86 995.43 995.12 994.08 994.23 993.69 992.50 992.87 993.21 993.17 993.19 993.73 994.02 994.23 994.60 996.03 997.27 998.40 999.27 1000.39 1001.64 1002.92 1004.05 1005.21 1006.36 1007.43 1008.32 1008.78 1009.67 1010.25 1010.83 1011.28 1011.33 1011.87 1012.38 1012.52 1012.66 1012.74
993.67 992.94 992.97 994.21 995.02 994.60 994.09 995.40 995.11 994.29 993.60 992.89 992.00 991.71 991.41 991.63 992.40 992.63 992.88 993.09 993.71 994.70 995.77 997.10 998.23 999.14 1000.19 1001.30 1002.57 1003.93 1005.09 1005.86 1006.63 1007.70 1008.39 1008.93 1009.48 1010.12 1010.61 1011.01 1011.49 1011.78 1012.01 1012.59
995.73 993.63 992.52 993.32 992.58 992.43 993.56 993.49 993.98 993.89 993.25 991.97 991.44 990.44 990.40 991.01 991.48 991.87 991.99 992.50 992.97 993.74 994.68 995.77 996.77 997.85 998.86 1000.03 1001.31 1002.41 1003.64 1004.58 1005.52 1006.15 1006.73 1007.50 1008.02 1008.73 1009.46 1009.89 1010.40 1010.97 1011.52 1011.85
996.77 994.89 992.68 991.91 992.51 992.73 992.72 992.87 993.13 992.57 992.74 992.74 991.66 990.30 990.75 990.90 990.99 991.50 991.66 992.06 992.53 993.18 993.77 994.74 995.50 996.57 997.74 998.80 999.76 1000.65 1001.75 1002.89 1003.71 1004.57 1005.51 1005.96 1006.71 1007.46 1008.03 1008.65 1009.19 1009.98 1010.57 1011.19
998.16 995.75 993.62 992.69 992.77 992.70 991.78 992.26 992.48 992.87 992.24 991.65 991.66 990.97 991.49 991.72 991.69 991.72 991.78 991.97 992.51 993.07 993.58 994.13 994.72 995.46 996.56 997.61 998.64 999.32 1000.28 1000.95 1002.11 1003.38 1004.13 1004.97 1005.48 1006.04 1006.48 1007.20 1008.03 1008.64 1009.26 1009.88
1000.08 996.60 994.09 991.95 992.06 992.24 992.25 991.73 992.24 992.10 991.54 991.04 991.00 991.13 991.41 991.58 991.70 992.18 992.53 992.87 993.17 993.66 994.16 994.39 994.72 995.03 995.61 996.59 997.44 998.35 998.93 999.94 1000.86 1001.78 1002.72 1003.33 1004.02 1004.34 1005.07 1005.96 1006.67 1007.35 1007.97 1008.71
1000.10 997.48 996.88 994.96 995.14 994.26 992.35 991.96 991.85 991.27 991.54 990.96 990.95 991.10 991.52 991.68 992.02 992.39 992.80 992.98 993.35 993.74 994.07 994.12 994.33 994.50 994.97 995.72 996.51 997.36 998.21 998.95 999.66 1000.63 1001.39 1002.08 1002.70 1003.48 1004.41 1005.04 1005.67 1006.31 1006.97 1007.47
1001.34 999.18 998.57 996.91 996.29 995.71 994.56 993.61 992.74 991.97 991.65 991.75 991.60 991.19 991.72 992.28 992.66 992.64 992.88 993.20 993.11 993.23 993.38 993.76 993.99 994.11 994.44 994.97 995.69 996.54 997.27 997.89 999.04 999.35 1000.04 1000.93 1002.01 1002.80 1003.35 1003.99 1004.50 1005.28 1005.81 1006.41
1002.71 1000.65 999.67 997.34 996.57 996.09 994.64 993.63 993.51 993.23 992.89 992.76 991.89 992.66 993.05 992.90 993.31 993.31 993.12 992.97 992.78 992.89 992.97 993.19 993.44 993.68 993.84 994.16 994.73 995.34 996.10 997.50 998.05 998.69 999.34 1000.22 1001.04 1001.74 1002.43 1003.36 1004.21 1004.59 1005.10 1005.79
1003.43 1002.29 1000.64 998.21 997.35 995.70 993.28 992.87 993.19 993.47 993.40 993.51 993.40 993.29 993.24 993.29 993.44 993.48 993.49 993.22 992.95 992.56 992.47 992.58 992.69 992.71 993.38 993.70 993.83 994.61 995.48 996.43 997.14 997.79 998.50 999.27 1000.04 1000.67 1001.68 1002.35 1002.60 1003.15 1003.85 1004.46
1004.15 1003.09 1001.06 999.51 997.62 995.10 993.84 994.12 994.07 993.66 993.33 993.62 993.52 993.42 993.29 993.48 993.51 993.21 993.16 992.87 992.49 992.06 991.72 991.67 991.70 991.94 992.25 992.67 992.99 993.87 994.81 995.43 996.31 996.77 997.29 997.88 998.90 999.90 1000.66 1001.00 1001.43 1002.99 1003.72 1004.21
1003.69 1003.92 1002.51 1000.07 998.38 995.71 994.68 994.02 994.88 994.78 994.47 994.29 994.25 994.36 994.03 993.55 992.79 992.47 992.43 992.27 992.11 991.94 991.85 991.74 991.76 991.81 991.96 992.11 992.56 993.11 993.95 994.64 995.04 995.34 995.82 997.34 998.12 998.85 999.38 1000.34 1001.37 1002.15 1002.86 1003.30
1003.01 1003.17 1002.21 1000.89 998.97 996.61 995.48 995.81 995.96 995.58 995.52 995.13 995.27 995.19 995.10 994.64 994.45 994.14 993.65 993.23 992.93 992.73 992.32 992.01 991.72 991.67 991.49 991.81 992.15 992.42 993.26 993.58 993.58 995.15 995.75 996.55 997.28 998.10 999.09 999.88 1000.46 1001.11 1001.63 1001.94
1002.24 1002.25 1001.34 1001.14 999.46 997.61 997.28 996.78 996.48 996.76 997.10 996.93 996.81 996.50 996.06 995.63 995.38 994.86 994.42 993.74 993.14 992.61 992.40 991.84 991.36 991.43 991.59 991.89 992.08 992.17 992.56 992.84 994.04 994.62 995.11 995.78 996.73 997.51 998.16 998.94 999.63 1000.19 1000.81 1001.24
1002.93 1001.76 1000.54 1000.21 998.94 998.74 998.34 997.74 997.60 997.86 997.66 997.62 997.18 997.01 996.40 995.78 995.40 995.07 994.47 994.01 993.10 992.59 991.80 991.29 991.38 991.42 991.88 991.98 991.90 991.88 992.16 992.94 993.52 994.12 994.63 995.29 996.10 996.83 997.16 998.11 999.01 999.68 1000.20 1000.07
1003.05 1002.50 1001.59 1001.23 1000.12 999.53 999.39 999.36 998.82 998.88 998.50 997.99 997.72 997.01 996.57 995.38 994.73 994.87 994.65 993.82 992.92 992.37 991.83 991.91 991.70 991.70 992.04 992.14 991.97 991.84 992.21 992.88 993.37 993.72 994.30 994.88 995.60 996.27 996.77 997.44 998.39 998.88 999.12 999.81
1003.19 1002.21 1001.56 1000.47 1000.21 1000.30 999.92 999.70 999.73 999.03 999.20 998.46 997.57 996.78 996.26 995.95 994.71 994.58 994.12 993.67 992.82 992.30 992.32 992.14 991.93 992.21 992.51 992.60 992.44 992.37 992.35 992.80 992.97 993.42 993.87 994.39 994.94 995.73 996.25 997.10 998.60 998.90 999.21 999.92
1003.28 1002.20 1001.45 999.99 1000.12 999.81 999.65 999.61 999.76 999.30 998.88 999.26 998.38 997.24 996.47 996.25 995.31 995.42 994.58 993.49 993.23 993.37 993.29 992.69 993.01 993.45 993.56 993.57 993.60 993.17 992.78 993.03 993.11 993.51 993.89 994.29 994.47 995.09 996.00 997.34 999.40 1000.11 1000.19 1000.24
Thickness
5779 5769 5777 5792 5795 5801 5809 5806 5805 5820 5834 5823 5823 5823 5832 5840 5833 5827 5821 5812 5810 5808 5811 5809 5805 5805 5803 5800 5795 5792 5789 5790 5789 5788 5788 5788 5788 5790 5791 5791 5789 5787 5784 5783
5773 5777 5791 5793 5793 5791 5797 5794 5804 5821 5827 5819 5823 5821 5834 5842 5837 5834 5830 5821 5817 5814 5812 5810 5810 5809 5808 5804 5801 5796 5793 5792 5790 5793 5795 5797 5796 5796 5796 5795 5793 5790 5788 5786
5784 5793 5793 5787 5782 5775 5782 5789 5797 5803 5819 5822 5818 5812 5823 5838 5841 5841 5842 5837 5829 5822 5816 5815 5813 5814 5813 5809 5806 5802 5798 5796 5794 5797 5797 5795 5796 5794 5795 5797 5796 5793 5790 5789
5783 5800 5790 5786 5781 5782 5777 5798 5796 5795 5787 5788 5821 5793 5828 5840 5837 5835 5839 5841 5839 5835 5830 5826 5823 5819 5820 5817 5813 5808 5803 5799 5799 5798 5800 5798 5796 5795 5801 5801 5802 5800 5793 5791
5786 5789 5788 5783 5788 5791 5786 5801 5790 5790 5785 5788 5800 5789 5821 5844 5829 5837 5843 5847 5847 5847 5843 5834 5832 5830 5829 5824 5821 5816 5809 5805 5805 5803 5803 5802 5798 5803 5806 5805 5802 5799 5798 5793
5788 5803 5795 5798 5793 5793 5793 5783 5782 5781 5782 5762 5796 5799 5816 5829 5835 5845 5852 5853 5852 5853 5852 5846 5843 5837 5832 5832 5827 5824 5818 5813 5811 5808 5805 5806 5805 5804 5805 5802 5801 5800 5800 5799
5774 5785 5794 5798 5780 5789 5780 5770 5752 5748 5757 5767 5809 5797 5820 5842 5856 5856 5858 5860 5859 5858 5856 5851 5845 5843 5840 5837 5834 5832 5826 5818 5816 5813 5812 5810 5808 5806 5805 5804 5801 5803 5803 5802
5757 5755 5789 5805 5794 5784 5777 5782 5775 5749 5770 5780 5805 5794 5824 5852 5858 5864 5865 5873 5866 5860 5859 5858 5855 5851 5847 5844 5841 5836 5831 5822 5820 5818 5817 5815 5812 5810 5808 5807 5808 5806 5807 5808
5765 5774 5804 5802 5802 5800 5781 5776 5813 5799 5799 5786 5816 5819 5836 5851 5855 5858 5862 5868 5870 5868 5865 5864 5865 5862 5856 5850 5847 5844 5838 5833 5829 5828 5823 5820 5818 5815 5815 5812 5810 5809 5810 5812
5773 5763 5791 5790 5793 5800 5799 5802 5770 5787 5754 5758 5800 5808 5815 5838 5841 5856 5861 5869 5874 5877 5875 5872 5869 5869 5867 5863 5858 5852 5847 5842 5840 5834 5831 5828 5825 5821 5818 5817 5813 5813 5812 5809
5750 5767 5775 5781 5782 5788 5784 5782 5787 5796 5794 5782 5784 5814 5856 5848 5853 5856 5867 5874 5878 5880 5880 5880 5880 5879 5878 5872 5866 5862 5855 5850 5845 5843 5841 5836 5833 5828 5823 5821 5818 5816 5813 5813
5736 5750 5754 5772 5793 5802 5799 5791 5794 5778 5774 5791 5801 5819 5857 5859 5863 5862 5868 5876 5883 5886 5887 5888 5888 5885 5881 5877 5875 5872 5868 5861 5859 5855 5848 5845 5840 5836 5831 5827 5824 5821 5816 5813
5711 5730 5732 5745 5767 5779 5784 5793 5797 5796 5807 5786 5780 5802 5846 5848 5850 5858 5861 5869 5875 5880 5883 5887 5889 5888 5885 5883 5880 5881 5877 5875 5869 5861 5856 5850 5847 5843 5841 5837 5831 5828 5823 5819
5679 5719 5737 5751 5762 5774 5764 5784 5788 5793 5786 5796 5799 5809 5828 5838 5842 5848 5853 5858 5862 5865 5867 5874 5878 5885 5889 5887 5886 5883 5883 5881 5876 5871 5863 5860 5856 5855 5850 5845 5841 5837 5832 5825
5669 5692 5701 5730 5719 5733 5764 5774 5782 5785 5794 5788 5809 5808 5823 5837 5841 5844 5849 5854 5854 5856 5860 5867 5874 5882 5887 5887 5888 5887 5885 5883 5882 5874 5870 5867 5864 5859 5853 5848 5845 5841 5837 5833
5645 5662 5674 5690 5709 5715 5721 5743 5761 5780 5793 5794 5805 5807 5833 5836 5839 5841 5844 5845 5848 5854 5862 5867 5873 5880 5884 5887 5887 5887 5886 5886 5881 5880 5877 5873 5865 5860 5856 5852 5849 5844 5841 5838
5613 5641 5654 5678 5702 5702 5701 5734 5746 5757 5773 5778 5782 5797 5815 5817 5822 5829 5837 5844 5849 5854 5860 5865 5870 5875 5883 5888 5891 5889 5890 5884 5882 5880 5879 5874 5869 5864 5859 5852 5846 5844 5841 5837
5593 5612 5638 5664 5673 5662 5735 5758 5752 5747 5763 5775 5782 5791 5805 5810 5820 5829 5836 5838 5844 5854 5861 5867 5874 5882 5883 5887 5893 5893 5890 5886 5883 5880 5878 5876 5871 5868 5861 5856 5856 5853 5848 5842
5581 5596 5619 5633 5653 5696 5713 5720 5724 5729 5745 5766 5772 5782 5797 5806 5813 5819 5836 5846 5851 5860 5870 5875 5883 5885 5888 5888 5895 5889 5885 5887 5882 5882 5881 5882 5875 5866 5862 5862 5860 5847 5840 5837
5574 5576 5595 5624 5629 5654 5696 5719 5724 5727 5709 5752 5759 5765 5778 5797 5791 5811 5835 5846 5850 5857 5862 5866 5875 5880 5883 5889 5890 5888 5885 5884 5884 5889 5891 5881 5876 5870 5868 5861 5852 5848 5842 5836
5559 5564 5575 5596 5614 5654 5686 5690 5703 5684 5704 5737 5744 5754 5760 5769 5784 5803 5818 5827 5838 5843 5852 5860 5868 5872 5882 5887 5887 5885 5882 5884 5896 5885 5884 5880 5877 5871 5863 5858 5855 5850 5845 5842
5558 5560 5576 5584 5597 5607 5661 5672 5672 5684 5695 5712 5722 5734 5744 5761 5773 5788 5802 5813 5826 5835 5842 5855 5862 5867 5876 5880 5880 5881 5880 5888 5882 5881 5880 5878 5874 5868 5865 5859 5854 5850 5843 5838
5540 5562 5580 5587 5607 5627 5636 5651 5662 5676 5683 5696 5708 5724 5739 5752 5764 5776 5791 5804 5819 5828 5840 5853 5855 5860 5865 5870 5875 5876 5880 5880 5878 5876 5874 5872 5869 5865 5865 5858 5849 5844 5840 5840
5539 5550 5556 5562 5591 5604 5614 5628 5648 5653 5669 5683 5700 5714 5729 5747 5764 5768 5779 5798 5813 5823 5832 5839 5844 5848 5852 5860 5867 5872 5874 5874 5871 5868 5866 5866 5861 5858 5858 5856 5850 5845 5843 5835
5530 5541 5549 5563 5578 5585 5595 5608 5621 5638 5646 5666 5686 5706 5719 5733 5754 5763 5774 5790 5807 5816 5822 5829 5834 5836 5840 5847 5853 5859 5864 5864 5863 5863 5862 5860 5858 5852 5851 5849 5841 5842 5841 5833
5526 5530 5535 5557 5562 5566 5580 5594 5606 5620 5635 5646 5667 5688 5709 5721 5738 5748 5764 5784 5795 5799 5804 5814 5818 5818 5822 5827 5831 5843 5852 5853 5852 5850 5851 5853 5850 5847 5841 5833 5821 5808 5808 5807